Weather History for GMMX - October, 2012

Change the Weather History Date:

Tuesday, October 30, 2012

  Actual Average Record
Temperature  
Mean Temperature 67 °F -  
Max Temperature 74 °F 70 °F 90 °F (2014)
Min Temperature 60 °F 49 °F 35 °F (2005)
Cooling Degree Days 2    
Growing Degree Days 17 (Base 50)    
Moisture  
Dew Point 62 °F    
Average Humidity 85    
Maximum Humidity 100    
Minimum Humidity 51    
Precipitation  
Precipitation 0.39 in 0.05 in - ()
Sea Level Pressure  
Sea Level Pressure 29.76 in    
Wind  
Wind Speed 6 mph ()    
Max Wind Speed 24 mph    
Max Gust Speed 40 mph    
Visibility 5.0 miles    
Events Rain    
Averages and records for this station are not official NWS values.
T = Trace of Precipitation, MM = Missing Value Source: Averaged Metar Reports

Daily Weather History Graph

Daily Weather History Graph

Search for Another Location

Airport or City:

Trip Planner

Search our weather history database for the weather conditions in past years. The results will help you decide how hot, cold, wet, or windy it might be!

Date:

Astronomy

Oct. 30, 2012 Rise Set
Actual Time 6:46 AM WET 5:44 PM WET
Civil Twilight 6:21 AM WET 6:09 PM WET
Nautical Twilight 5:53 AM WET 6:38 PM WET
Astronomical Twilight 5:24 AM WET 7:06 PM WET
Moon 6:09 PM WET (10/30) 7:16 AM WET (10/30)
Length of Visible Light 11h 47m
Length of Day
10h 57m
Full, 100% of the Moon is Illuminated
Oct 30
Full
Nov 7
Last Quarter
Nov 13
New
Nov 20
First Quarter
Nov 28
Full

Hourly Weather History & Observations

Time (WET) Temp. Dew Point Humidity Pressure Visibility Wind Dir Wind Speed Gust Speed Precip Events Conditions
12:00 AM 69 °F 57 °F 58% 29.81 in 6 mi WSW 11.5 mph - -   Partly Cloudy
12:00 AM 69.8 °F 57.2 °F 64% 29.86 in 6.2 mi WSW 11.5 mph - N/A   Scattered Clouds
12:30 AM 66.2 °F 57.2 °F 73% 29.86 in 6.2 mi West 6.9 mph - N/A   Scattered Clouds
1:00 AM 66.2 °F 57.2 °F 73% 29.86 in 6.2 mi WSW 5.8 mph - N/A   Scattered Clouds
1:30 AM 66.2 °F 59.0 °F 78% 29.83 in 6.2 mi WSW 6.9 mph - N/A   Scattered Clouds
2:00 AM 66.2 °F 57.2 °F 73% 29.83 in 6.2 mi SSW 5.8 mph - N/A   Scattered Clouds
2:30 AM 66.2 °F 57.2 °F 73% 29.83 in 6.2 mi SW 6.9 mph - N/A   Unknown
3:00 AM 66 °F 58 °F 68% 29.79 in 6 mi SW 6.9 mph - -  
3:00 AM 66.2 °F 57.2 °F 73% 29.83 in - SW 5.8 mph - N/A   Clear
3:30 AM 66.2 °F 59.0 °F 78% 29.83 in - SW 5.8 mph - N/A   Clear
4:00 AM 64.4 °F 59.0 °F 83% 29.83 in - South 3.5 mph - N/A   Clear
4:30 AM 64.4 °F 59.0 °F 83% 29.83 in - Variable 2.3 mph - N/A   Clear
5:00 AM 64.4 °F 57.2 °F 77% 29.83 in 6.2 mi Calm Calm - N/A   Scattered Clouds
5:30 AM 64.4 °F 59.0 °F 83% 29.83 in 6.2 mi West 4.6 mph - N/A   Scattered Clouds
6:00 AM 65 °F 61 °F 81% 29.79 in 6 mi SW 4.6 mph - -   Mostly Cloudy
6:00 AM 64.4 °F 60.8 °F 88% 29.83 in 6.2 mi WSW 4.6 mph - N/A   Scattered Clouds
6:30 AM 64.4 °F 62.6 °F 94% 29.83 in 6.2 mi SW 5.8 mph - N/A   Scattered Clouds
7:00 AM 64.4 °F 62.6 °F 94% 29.83 in 6.2 mi WSW 4.6 mph - N/A   Scattered Clouds
7:30 AM 64.4 °F 62.6 °F 94% 29.83 in 6.2 mi SSW 3.5 mph - N/A   Scattered Clouds
8:00 AM 66.2 °F 62.6 °F 88% 29.83 in 6.2 mi SSW 3.5 mph - N/A   Scattered Clouds
8:30 AM 66.2 °F 62.6 °F 88% 29.83 in 6.2 mi SSE 3.5 mph - N/A   Scattered Clouds
9:00 AM 68 °F 63 °F 78% 29.78 in 6 mi WSW 3.5 mph - -   Partly Cloudy
9:00 AM 68.0 °F 62.6 °F 83% 29.83 in 6.2 mi WSW 3.5 mph - N/A   Scattered Clouds
9:30 AM 69.8 °F 62.6 °F 78% 29.80 in 6.2 mi Variable 1.2 mph - N/A   Scattered Clouds
10:00 AM 69.8 °F 62.6 °F 78% 29.80 in 6.2 mi SE 3.5 mph - N/A   Scattered Clouds
10:30 AM 71.6 °F 60.8 °F 69% 29.80 in 6.2 mi SSE 3.5 mph - N/A   Scattered Clouds
11:00 AM 73.4 °F 59.0 °F 61% 29.77 in 6.2 mi Variable 2.3 mph - N/A   Scattered Clouds
11:30 AM 73.4 °F 59.0 °F 61% 29.77 in 6.2 mi West 4.6 mph - N/A   Scattered Clouds
12:00 PM 74 °F 59 °F 51% 29.70 in 6 mi West 15.0 mph - -   Partly Cloudy
12:00 PM 73.4 °F 59.0 °F 61% 29.77 in 6.2 mi West 15.0 mph - N/A   Scattered Clouds
12:30 PM 71.6 °F 60.8 °F 69% 29.77 in 6.2 mi West 21.9 mph - N/A   Scattered Clouds
1:00 PM 68.0 °F 64.4 °F 88% 29.77 in 3.7 mi WSW 9.2 mph - N/A Rain Rain
1:30 PM 66.2 °F 64.4 °F 94% 29.74 in 3.1 mi SW 6.9 mph - N/A Rain Rain
1:45 PM 64.4 °F 64.4 °F 100% 29.74 in 1.9 mi West 5.8 mph - N/A Rain Rain Showers
2:00 PM 66.2 °F 64.4 °F 94% 29.74 in 1.9 mi WSW 5.8 mph - N/A Rain Rain Showers
2:01 PM 66.2 °F 64.4 °F 94% 29.74 in 3.7 mi WSW 9.2 mph - N/A Rain Rain
2:30 PM 66.2 °F 66.2 °F 100% 29.74 in 6.2 mi SW 5.8 mph - N/A   Partly Cloudy
2:50 PM 66.2 °F 66.2 °F 100% 29.74 in 1.9 mi WSW 10.4 mph - N/A Rain Rain Showers
3:00 PM 66 °F 66 °F 100% 29.71 in 2 mi WSW 10.4 mph - - Rain Light Rain Showers
3:00 PM 66.2 °F 66.2 °F 100% 29.74 in 1.9 mi WSW 10.4 mph - N/A Rain Rain Showers
3:01 PM 64.4 °F 64.4 °F 100% 29.74 in 1.2 mi West 24.2 mph 40.3 mph N/A Rain Rain Showers
3:30 PM 66.2 °F 62.6 °F 88% 29.71 in 5.0 mi WSW 18.4 mph - N/A   Mostly Cloudy
4:00 PM 66.2 °F 62.6 °F 88% 29.71 in 5.0 mi West 17.3 mph - N/A   Mostly Cloudy
4:30 PM 66.2 °F 64.4 °F 94% 29.71 in 5.0 mi SW 8.1 mph - N/A   Mostly Cloudy
5:00 PM 68.0 °F 64.4 °F 88% 29.71 in 5.0 mi SSW 3.5 mph - N/A Rain Rain
5:30 PM 68.0 °F 64.4 °F 88% 29.71 in 5.0 mi Calm Calm - N/A Rain Rain
6:00 PM 67 °F 63 °F 83% 29.65 in 5 mi South 5.8 mph - - Rain Light Rain
6:00 PM 68.0 °F 64.4 °F 88% 29.71 in 5.0 mi SSW 3.5 mph - N/A Rain Rain
6:30 PM 66.2 °F 62.6 °F 88% 29.71 in 3.7 mi WSW 8.1 mph - N/A Rain Rain
7:00 PM 66.2 °F 62.6 °F 88% 29.71 in 3.7 mi SW 8.1 mph - N/A Rain Rain
7:30 PM 66.2 °F 62.6 °F 88% 29.71 in 3.1 mi Variable 4.6 mph - N/A Rain Rain
8:00 PM 64.4 °F 64.4 °F 100% 29.71 in 3.1 mi Calm Calm - N/A Rain Light Rain Showers
8:30 PM 64.4 °F 62.6 °F 94% 29.68 in - SE 4.6 mph - N/A Rain Light Rain
9:00 PM 64 °F 63 °F 95% 29.68 in 4 mi Calm Calm - - Rain Rain Showers
9:00 PM 64.4 °F 62.6 °F 94% 29.71 in 3.7 mi Calm Calm - N/A Rain Light Rain
9:30 PM 64.4 °F 64.4 °F 100% 29.71 in 4.3 mi SSE 5.8 mph - N/A Rain Light Rain
10:00 PM 64.4 °F 64.4 °F 100% 29.68 in 3.1 mi SE 9.2 mph - N/A Rain Light Rain
10:30 PM 64.4 °F 64.4 °F 100% 29.68 in 6.2 mi East 5.8 mph - N/A Rain Light Rain
11:00 PM 64.4 °F 64.4 °F 100% 29.68 in 6.2 mi NE 3.5 mph - N/A Rain Light Rain
11:30 PM 64.4 °F 64.4 °F 100% 29.68 in 6.2 mi Variable 2.3 mph - N/A Rain Light Rain